When you browse on this site, cookies collect data to enhance your experience and personalize the content and advertising you see.
Visit our Privacy Policy to learn more. By continuing to use the site, you agree to this use of cookies and data.
  • In Schweiz
  • Länderverzeichnis
  • Für 7 Tage
  • Wassertemperatur
  • Wetterkarte
  • Widgets
  • user-avatar
    Anmelden

    Stündliche Wetter Machdia

    Heute, 29 Mai, Freitag

    Zeit Temperatur Niederschläge Wind Luftdruck Luftfeuchtigkeit
    00:00 +20°C° 0 mm 4 m/S 766 mmHg 64%
    01:00 +20°C° 0 mm 4 m/S 765 mmHg 63%
    02:00 +20°C° 0 mm 4 m/S 765 mmHg 64%
    03:00 +21°C° 0 mm 5 m/S 764 mmHg 64%
    04:00 +21°C° 0 mm 5 m/S 764 mmHg 65%
    05:00 +21°C° 0 mm 5 m/S 764 mmHg 65%
    06:00 +21°C° 0 mm 6 m/S 764 mmHg 65%
    07:00 +22°C° 0 mm 6 m/S 764 mmHg 65%
    08:00 +23°C° 0 mm 6 m/S 764 mmHg 58%
    09:00 +24°C° 0 mm 6 m/S 763 mmHg 51%
    10:00 +26°C° 0 mm 6 m/S 763 mmHg 44%
    11:00 +27°C° 0.1 mm 7 m/S 763 mmHg 43%
    12:00 +28°C° 0.1 mm 7 m/S 763 mmHg 41%
    13:00 +29°C° 0.1 mm 7 m/S 763 mmHg 39%
    14:00 +28°C° 0 mm 8 m/S 762 mmHg 41%
    15:00 +27°C° 0 mm 8 m/S 762 mmHg 44%
    16:00 +26°C° 0 mm 9 m/S 761 mmHg 46%
    17:00 +26°C° 0.1 mm 8 m/S 761 mmHg 51%
    18:00 +24°C° 0.1 mm 8 m/S 760 mmHg 56%
    19:00 +23°C° 0.1 mm 7 m/S 760 mmHg 60%
    20:00 +23°C° 0 mm 7 m/S 760 mmHg 62%
    21:00 +23°C° 0 mm 6 m/S 761 mmHg 64%
    22:00 +23°C° 0 mm 6 m/S 761 mmHg 66%
    23:00 +22°C° 0 mm 6 m/S 761 mmHg 67%

    Morgen, 30 Mai, Samstag

    Zeit Temperatur Niederschläge Wind Luftdruck Luftfeuchtigkeit
    00:00 +22°C° 0 mm 6 m/S 760 mmHg 69%
    01:00 +22°C° 0 mm 6 m/S 760 mmHg 70%
    02:00 +22°C° 0 mm 6 m/S 760 mmHg 72%
    03:00 +22°C° 0 mm 5 m/S 760 mmHg 74%
    04:00 +22°C° 0 mm 5 m/S 759 mmHg 77%
    05:00 +22°C° 0 mm 5 m/S 759 mmHg 73%
    06:00 +23°C° 0 mm 5 m/S 759 mmHg 69%
    07:00 +23°C° 0 mm 5 m/S 759 mmHg 65%
    08:00 +23°C° 0.2 mm 5 m/S 759 mmHg 64%
    09:00 +23°C° 0.2 mm 5 m/S 759 mmHg 62%
    10:00 +23°C° 0.2 mm 5 m/S 759 mmHg 61%
    11:00 +26°C° 0.2 mm 5 m/S 759 mmHg 53%
    12:00 +28°C° 0.2 mm 4 m/S 759 mmHg 46%
    13:00 +30°C° 0.2 mm 4 m/S 758 mmHg 38%
    14:00 +30°C° 0.1 mm 5 m/S 758 mmHg 41%
    15:00 +29°C° 0.1 mm 5 m/S 758 mmHg 43%
    16:00 +28°C° 0.1 mm 6 m/S 758 mmHg 46%
    17:00 +28°C° 0.1 mm 5 m/S 758 mmHg 49%
    18:00 +27°C° 0.1 mm 4 m/S 758 mmHg 53%
    19:00 +26°C° 0.1 mm 2 m/S 758 mmHg 56%
    20:00 +25°C° 0 mm 2 m/S 759 mmHg 59%
    21:00 +25°C° 0 mm 2 m/S 759 mmHg 61%
    22:00 +24°C° 0 mm 1 m/S 760 mmHg 64%
    23:00 +24°C° 0 mm 2 m/S 760 mmHg 67%

    übermorgen, 31 Mai, Sonntag

    Zeit Temperatur Niederschläge Wind Luftdruck Luftfeuchtigkeit
    00:00 +23°C° 0 mm 2 m/S 760 mmHg 70%
    01:00 +22°C° 0 mm 3 m/S 760 mmHg 73%
    02:00 +22°C° 0 mm 3 m/S 760 mmHg 77%
    03:00 +21°C° 0 mm 3 m/S 760 mmHg 80%
    04:00 +21°C° 0 mm 3 m/S 760 mmHg 83%
    05:00 +21°C° 0 mm 3 m/S 760 mmHg 81%
    06:00 +22°C° 0 mm 3 m/S 760 mmHg 78%
    07:00 +22°C° 0 mm 4 m/S 761 mmHg 76%
    08:00 +23°C° 0 mm 4 m/S 761 mmHg 69%
    09:00 +25°C° 0 mm 5 m/S 761 mmHg 62%
    10:00 +26°C° 0 mm 5 m/S 761 mmHg 55%
    11:00 +27°C° 0 mm 5 m/S 761 mmHg 50%
    12:00 +27°C° 0 mm 5 m/S 761 mmHg 45%
    13:00 +28°C° 0 mm 5 m/S 761 mmHg 40%
    14:00 +28°C° 0 mm 5 m/S 761 mmHg 39%
    15:00 +28°C° 0 mm 5 m/S 761 mmHg 39%
    16:00 +28°C° 0 mm 5 m/S 760 mmHg 39%
    17:00 +27°C° 0 mm 5 m/S 760 mmHg 46%
    18:00 +26°C° 0 mm 6 m/S 760 mmHg 54%
    19:00 +23°C° 0 mm 6 m/S 760 mmHg 61%
    20:00 +23°C° 0 mm 5 m/S 761 mmHg 63%
    21:00 +24°C° 0 mm 3 m/S 762 mmHg 64%
    22:00 +23°C° 0 mm 2 m/S 762 mmHg 66%
    23:00 +23°C° 0 mm 2 m/S 762 mmHg 67%

    1 Juni, Montag

    Zeit Temperatur Niederschläge Wind Luftdruck Luftfeuchtigkeit
    00:00 +23°C° 0 mm 2 m/S 761 mmHg 69%
    01:00 +22°C° 0 mm 3 m/S 761 mmHg 70%
    02:00 +21°C° 0 mm 2 m/S 761 mmHg 72%
    03:00 +21°C° 0 mm 2 m/S 760 mmHg 73%
    04:00 +21°C° 0 mm 2 m/S 760 mmHg 75%
    05:00 +21°C° 0 mm 2 m/S 760 mmHg 72%
    06:00 +23°C° 0 mm 2 m/S 760 mmHg 68%
    07:00 +23°C° 0 mm 2 m/S 760 mmHg 65%
    08:00 +24°C° 0.2 mm 2 m/S 761 mmHg 61%
    09:00 +25°C° 0.2 mm 2 m/S 761 mmHg 56%
    10:00 +26°C° 0.2 mm 2 m/S 761 mmHg 52%
    11:00 +26°C° 0.2 mm 3 m/S 761 mmHg 52%
    12:00 +27°C° 0.2 mm 4 m/S 760 mmHg 51%
    13:00 +27°C° 0.2 mm 4 m/S 760 mmHg 51%
    14:00 +26°C° 0.2 mm 4 m/S 760 mmHg 54%
    15:00 +26°C° 0.2 mm 4 m/S 759 mmHg 57%
    16:00 +25°C° 0.2 mm 5 m/S 759 mmHg 60%
    17:00 +25°C° 0 mm 4 m/S 759 mmHg 61%
    18:00 +23°C° 0 mm 4 m/S 760 mmHg 61%
    19:00 +23°C° 0 mm 4 m/S 760 mmHg 61%
    20:00 +22°C° 0 mm 4 m/S 760 mmHg 63%
    21:00 +22°C° 0 mm 4 m/S 761 mmHg 65%
    22:00 +22°C° 0 mm 4 m/S 761 mmHg 66%
    23:00 +21°C° 0 mm 4 m/S 761 mmHg 68%

    2 Juni, Dienstag

    Zeit Temperatur Niederschläge Wind Luftdruck Luftfeuchtigkeit
    00:00 +21°C° 0 mm 5 m/S 761 mmHg 70%
    01:00 +20°C° 0 mm 5 m/S 761 mmHg 72%
    02:00 +20°C° 0 mm 5 m/S 761 mmHg 73%
    03:00 +20°C° 0 mm 6 m/S 761 mmHg 75%
    04:00 +19°C° 0 mm 6 m/S 760 mmHg 76%
    05:00 +20°C° 0 mm 7 m/S 761 mmHg 72%
    06:00 +21°C° 0 mm 7 m/S 761 mmHg 69%
    07:00 +21°C° 0 mm 7 m/S 761 mmHg 65%
    08:00 +23°C° 0 mm 7 m/S 761 mmHg 59%
    09:00 +24°C° 0 mm 6 m/S 761 mmHg 53%
    10:00 +26°C° 0 mm 6 m/S 762 mmHg 46%
    11:00 +27°C° 0 mm 6 m/S 761 mmHg 44%
    12:00 +27°C° 0 mm 5 m/S 761 mmHg 41%
    13:00 +28°C° 0 mm 5 m/S 761 mmHg 38%
    14:00 +28°C° 0 mm 5 m/S 761 mmHg 40%
    15:00 +28°C° 0 mm 5 m/S 760 mmHg 41%
    16:00 +28°C° 0 mm 4 m/S 760 mmHg 43%
    17:00 +27°C° 0 mm 4 m/S 760 mmHg 47%
    18:00 +26°C° 0 mm 5 m/S 760 mmHg 51%
    19:00 +25°C° 0 mm 5 m/S 760 mmHg 54%
    20:00 +24°C° 0 mm 3 m/S 760 mmHg 57%
    21:00 +24°C° 0 mm 2 m/S 761 mmHg 59%
    22:00 +24°C° 0 mm 1 m/S 761 mmHg 61%
    23:00 +23°C° 0 mm 1 m/S 761 mmHg 62%

    3 Juni, Mittwoch

    Zeit Temperatur Niederschläge Wind Luftdruck Luftfeuchtigkeit
    00:00 +23°C° 0 mm 1 m/S 761 mmHg 63%
    01:00 +22°C° 0 mm 1 m/S 760 mmHg 64%
    02:00 +22°C° 0 mm 1 m/S 760 mmHg 66%
    03:00 +22°C° 0 mm 1 m/S 760 mmHg 67%
    04:00 +21°C° 0 mm 1 m/S 760 mmHg 68%
    05:00 +22°C° 0 mm 1 m/S 760 mmHg 64%
    06:00 +23°C° 0 mm 2 m/S 760 mmHg 60%
    07:00 +24°C° 0 mm 2 m/S 760 mmHg 56%
    08:00 +25°C° 0 mm 3 m/S 760 mmHg 52%
    09:00 +26°C° 0 mm 4 m/S 760 mmHg 47%
    10:00 +28°C° 0 mm 4 m/S 760 mmHg 42%
    11:00 +29°C° 0 mm 5 m/S 760 mmHg 39%
    12:00 +30°C° 0 mm 6 m/S 759 mmHg 37%
    13:00 +32°C° 0 mm 7 m/S 759 mmHg 34%
    14:00 +31°C° 0 mm 8 m/S 758 mmHg 37%
    15:00 +31°C° 0 mm 8 m/S 758 mmHg 40%
    16:00 +29°C° 0 mm 9 m/S 757 mmHg 43%
    17:00 +28°C° 0 mm 9 m/S 757 mmHg 48%
    18:00 +27°C° 0 mm 9 m/S 757 mmHg 53%
    19:00 +26°C° 0 mm 9 m/S 757 mmHg 58%
    20:00 +24°C° 0 mm 9 m/S 757 mmHg 59%
    21:00 +24°C° 0 mm 9 m/S 758 mmHg 61%
    22:00 +24°C° 0 mm 9 m/S 758 mmHg 62%
    23:00 +24°C° 0 mm 8 m/S 758 mmHg 62%
    Mehr zeigen